| time (UTC) | temp C | wind direction | speed KPH | gust KPH | rain 1hr cm | rain 24hr cm | rain mn cm | humidity % | barometer mb |
| 20260904005320 | 31 | 163 | 9.7 | 17.7 | 0.00 | 0.00 | 0.00 | 70 | 1017.1 |
| 20260904004324 | 32 | 149 | 4.8 | 14.5 | 0.00 | 0.00 | 0.00 | 71 | 1017.1 |
| 20260904003321 | 32 | 143 | 9.7 | 16.1 | 0.00 | 0.00 | 0.00 | 70 | 1016.9 |
| 20260904002322 | 32 | 236 | 8.0 | 14.5 | 0.00 | 0.00 | 0.00 | 71 | 1016.7 |
| 20260904001319 | 32 | 123 | 4.8 | 14.5 | 0.00 | 0.00 | 0.00 | 70 | 1016.7 |
| 20260904000319 | 32 | 171 | 4.8 | 8.0 | 0.00 | 0.00 | 0.00 | 69 | 1016.3 |
| 20260903235323 | 32 | 145 | 4.8 | 8.0 | 0.00 | 0.00 | 0.00 | 69 | 1016.3 |
| 20260903234320 | 33 | 156 | 4.8 | 11.3 | 0.00 | 0.00 | 0.00 | 68 | 1016.0 |
| 20260903233317 | 33 | 159 | 6.4 | 11.3 | 0.00 | 0.00 | 0.00 | 68 | 1016.0 |
| 20260903232317 | 33 | 161 | 4.8 | 11.3 | 0.00 | 0.00 | 0.00 | 67 | 1015.9 |
| 20260903231313 | 33 | 144 | 4.8 | 11.3 | 0.00 | 0.00 | 0.00 | 66 | 1016.0 |
| 20260903230309 | 34 | 74 | 4.8 | 11.3 | 0.00 | 0.00 | 0.00 | 66 | 1016.1 |
| 20260903225331 | 34 | 82 | 4.8 | 12.9 | 0.00 | 0.00 | 0.00 | 64 | 1016.2 |
| 20260903224311 | 35 | 154 | 4.8 | 12.9 | 0.00 | 0.00 | 0.00 | 64 | 1016.2 |
| 20260903223322 | 35 | 166 | 4.8 | 11.3 | 0.00 | 0.00 | 0.00 | 62 | 1016.2 |
| 20260903222324 | 35 | 157 | 4.8 | 11.3 | 0.00 | 0.00 | 0.00 | 62 | 1016.2 |
| 20260903221320 | 36 | 112 | 4.8 | 11.3 | 0.00 | 0.00 | 0.00 | 60 | 1016.2 |
| 20260903220317 | 36 | 162 | 4.8 | 11.3 | 0.00 | 0.00 | 0.00 | 58 | 1016.2 |
| 20260903215318 | 37 | 182 | 4.8 | 11.3 | 0.00 | 0.00 | 0.00 | 56 | 1016.3 |
| 20260903214313 | 38 | 155 | 4.8 | 11.3 | 0.00 | 0.00 | 0.00 | 54 | 1016.3 |
| 20260903213337 | 38 | 70 | 6.4 | 17.7 | 0.00 | 0.00 | 0.00 | 53 | 1016.2 |
| 20260903212318 | 38 | 197 | 4.8 | 11.3 | 0.00 | 0.00 | 0.00 | 53 | 1016.1 |
| 20260903211310 | 38 | 140 | 4.8 | 11.3 | 0.00 | 0.00 | 0.00 | 55 | 1016.2 |
| 20260903210311 | 38 | 99 | 6.4 | 14.5 | 0.00 | 0.00 | 0.00 | 54 | 1016.1 |
| 20260903205326 | 38 | 109 | 6.4 | 14.5 | 0.00 | 0.00 | 0.00 | 54 | 1016.1 |
| 20260903204326 | 38 | 103 | 6.4 | 12.9 | 0.00 | 0.00 | 0.00 | 54 | 1016.2 |
| 20260903203326 | 38 | 126 | 6.4 | 11.3 | 0.00 | 0.00 | 0.00 | 53 | 1016.3 |
| 20260903202338 | 38 | 126 | 4.8 | 12.9 | 0.00 | 0.00 | 0.00 | 53 | 1016.5 |
| 20260903201316 | 38 | 182 | 4.8 | 8.0 | 0.00 | 0.00 | 0.00 | 54 | 1016.6 |
| 20260903200312 | 38 | 132 | 4.8 | 9.7 | 0.00 | 0.00 | 0.00 | 53 | 1016.6 |
| 20260903195331 | 38 | 160 | 4.8 | 11.3 | 0.00 | 0.00 | 0.00 | 56 | 1016.7 |
| 20260903194324 | 38 | 92 | 1.6 | 12.9 | 0.00 | 0.00 | 0.00 | 56 | 1016.9 |
| 20260903193317 | 39 | 52 | 4.8 | 16.1 | 0.00 | 0.00 | 0.00 | 54 | 1016.9 |
| 20260903192317 | 39 | 101 | 6.4 | 12.9 | 0.00 | 0.00 | 0.00 | 54 | 1017.1 |
| 20260903191313 | 39 | 121 | 6.4 | 17.7 | 0.00 | 0.00 | 0.00 | 53 | 1017.1 |
| 20260903190334 | 39 | 157 | 4.8 | 12.9 | 0.00 | 0.00 | 0.00 | 54 | 1017.1 |
| 20260903185325 | 39 | 84 | 6.4 | 14.5 | 0.00 | 0.00 | 0.00 | 52 | 1017.2 |
| 20260903184326 | 40 | 54 | 4.8 | 8.0 | 0.00 | 0.00 | 0.00 | 52 | 1017.4 |
| 20260903183319 | 39 | 98 | 4.8 | 12.9 | 0.00 | 0.00 | 0.00 | 51 | 1017.5 |
| 20260903182313 | 38 | 128 | 4.8 | 12.9 | 0.00 | 0.00 | 0.00 | 52 | 1017.6 |
| 20260903181322 | 38 | 128 | 6.4 | 14.5 | 0.00 | 0.00 | 0.00 | 54 | 1017.6 |
| 20260903180330 | 38 | 119 | 4.8 | 12.9 | 0.00 | 0.00 | 0.00 | 56 | 1017.7 |
| 20260903175347 | 38 | 134 | 4.8 | 11.3 | 0.00 | 0.00 | 0.00 | 55 | 1017.8 |
| 20260903174328 | 39 | 214 | 3.2 | 9.7 | 0.00 | 0.00 | 0.00 | 56 | 1017.9 |
| 20260903173322 | 38 | 178 | 4.8 | 12.9 | 0.00 | 0.00 | 0.00 | 57 | 1018.0 |
| 20260903172316 | 38 | 107 | 1.6 | 12.9 | 0.00 | 0.00 | 0.00 | 54 | 1018.0 |
| 20260903171318 | 38 | 169 | 3.2 | 11.3 | 0.00 | 0.00 | 0.00 | 56 | 1018.1 |
| 20260903170310 | 39 | 109 | 3.2 | 9.7 | 0.00 | 0.00 | 0.00 | 57 | 1018.2 |
| 20260903165330 | 38 | 109 | 6.4 | 11.3 | 0.00 | 0.00 | 0.00 | 56 | 1018.4 |
| 20260903164320 | 38 | 36 | 4.8 | 11.3 | 0.00 | 0.00 | 0.00 | 57 | 1018.4 |
| 20260903163309 | 38 | 100 | 3.2 | 8.0 | 0.00 | 0.00 | 0.00 | 60 | 1018.5 |
| 20260903162326 | 38 | 53 | 3.2 | 9.7 | 0.00 | 0.00 | 0.00 | 60 | 1018.6 |
| 20260903161344 | 37 | 69 | 3.2 | 11.3 | 0.00 | 0.00 | 0.00 | 60 | 1018.7 |
| 20260903160313 | 37 | 165 | 4.8 | 8.0 | 0.00 | 0.00 | 0.00 | 62 | 1018.7 |
| 20260903155309 | 36 | 250 | 3.2 | 8.0 | 0.00 | 0.00 | 0.00 | 64 | 1018.7 |
| 20260903154324 | 36 | 194 | 1.6 | 11.3 | 0.00 | 0.00 | 0.00 | 63 | 1018.7 |
| 20260903153323 | 36 | 238 | 3.2 | 8.0 | 0.00 | 0.00 | 0.00 | 65 | 1018.7 |
| 20260903152311 | 35 | 155 | 3.2 | 8.0 | 0.00 | 0.00 | 0.00 | 67 | 1018.7 |
| 20260903151331 | 35 | 324 | 1.6 | 9.7 | 0.00 | 0.00 | 0.00 | 66 | 1018.7 |
| 20260903150324 | 34 | 214 | 4.8 | 6.4 | 0.00 | 0.00 | 0.00 | 67 | 1018.7 |
| 20260903145321 | 34 | 300 | 3.2 | 8.0 | 0.00 | 0.00 | 0.00 | 68 | 1018.7 |
| 20260903144317 | 33 | 267 | 4.8 | 8.0 | 0.00 | 0.00 | 0.00 | 68 | 1018.7 |
| 20260903143327 | 33 | 263 | 1.6 | 6.4 | 0.00 | 0.00 | 0.00 | 70 | 1018.7 |
| 20260903142347 | 33 | 252 | 3.2 | 6.4 | 0.00 | 0.00 | 0.00 | 69 | 1018.6 |
| 20260903141339 | 32 | 225 | 3.2 | 8.0 | 0.00 | 0.00 | 0.00 | 72 | 1018.6 |
| 20260903140309 | 32 | 295 | 4.8 | 12.9 | 0.00 | 0.00 | 0.00 | 72 | 1018.6 |
| 20260903135328 | 32 | 222 | 6.4 | 11.3 | 0.00 | 0.00 | 0.00 | 72 | 1018.5 |
| 20260903134320 | 31 | 237 | 4.8 | 12.9 | 0.00 | 0.00 | 0.00 | 72 | 1018.5 |
| 20260903133317 | 31 | 279 | 4.8 | 14.5 | 0.00 | 0.00 | 0.00 | 74 | 1018.5 |
| 20260903132327 | 31 | 274 | 8.0 | 12.9 | 0.00 | 0.00 | 0.00 | 75 | 1018.6 |
| 20260903131325 | 30 | 244 | 4.8 | 14.5 | 0.00 | 0.00 | 0.00 | 75 | 1018.6 |
| 20260903130316 | 30 | 248 | 9.7 | 16.1 | 0.00 | 0.00 | 0.00 | 78 | 1018.7 |
| 20260903125311 | 29 | 232 | 6.4 | 11.3 | 0.00 | 0.00 | 0.00 | 79 | 1018.7 |
| 20260903124335 | 28 | 233 | 4.8 | 8.0 | 0.00 | 0.00 | 0.00 | 81 | 1018.8 |
| 20260903123309 | 28 | 273 | 3.2 | 8.0 | 0.00 | 0.00 | 0.00 | 83 | 1019.0 |
| 20260903122312 | 27 | 204 | 3.2 | 6.4 | 0.00 | 0.00 | 0.00 | 85 | 1019.0 |
| 20260903121337 | 27 | 207 | 3.2 | 6.4 | 0.00 | 0.00 | 0.00 | 85 | 1018.9 |
| 20260903120330 | 27 | 231 | 3.2 | 6.4 | 0.00 | 0.00 | 0.00 | 86 | 1019.0 |
| 20260903115311 | 27 | 225 | 3.2 | 8.0 | 0.00 | 0.00 | 0.00 | 87 | 1018.9 |
| 20260903114323 | 26 | 248 | 4.8 | 8.0 | 0.00 | 0.00 | 0.00 | 87 | 1018.8 |
| 20260903113342 | 26 | 229 | 3.2 | 4.8 | 0.00 | 0.00 | 0.00 | 88 | 1018.6 |
| 20260903112341 | 26 | 212 | 4.8 | 9.7 | 0.00 | 0.00 | 0.00 | 88 | 1018.6 |
| 20260903111338 | 26 | 227 | 4.8 | 8.0 | 0.00 | 0.00 | 0.00 | 88 | 1018.6 |
| 20260903110320 | 26 | 246 | 3.2 | 6.4 | 0.00 | 0.00 | 0.00 | 88 | 1018.6 |
| 20260903105332 | 26 | 167 | 3.2 | 4.8 | 0.00 | 0.00 | 0.00 | 88 | 1018.6 |
| 20260903104311 | 26 | 192 | 3.2 | 8.0 | 0.00 | 0.00 | 0.00 | 88 | 1018.4 |
| 20260903103331 | 26 | 204 | 3.2 | 8.0 | 0.00 | 0.00 | 0.00 | 88 | 1018.4 |
| 20260903102321 | 26 | 215 | 3.2 | 8.0 | 0.00 | 0.00 | 0.00 | 88 | 1018.2 |
| 20260903101341 | 26 | 198 | 3.2 | 6.4 | 0.00 | 0.00 | 0.00 | 87 | 1018.1 |
| 20260903100341 | 26 | 181 | 4.8 | 4.8 | 0.00 | 0.00 | 0.00 | 87 | 1018.1 |
| 20260903095318 | 26 | 187 | 3.2 | 6.4 | 0.00 | 0.00 | 0.00 | 87 | 1018.1 |
| 20260903094314 | 26 | 194 | 3.2 | 6.4 | 0.00 | 0.00 | 0.00 | 86 | 1018.1 |
| 20260903093352 | 26 | 211 | 3.2 | 4.8 | 0.00 | 0.00 | 0.00 | 86 | 1018.0 |
| 20260903092326 | 26 | 194 | 3.2 | 9.7 | 0.00 | 0.00 | 0.00 | 86 | 1017.9 |
| 20260903091328 | 27 | 178 | 4.8 | 8.0 | 0.00 | 0.00 | 0.00 | 86 | 1017.9 |
| 20260903090324 | 27 | 167 | 4.8 | 6.4 | 0.00 | 0.00 | 0.00 | 86 | 1017.8 |
| 20260903085320 | 27 | 219 | 4.8 | 11.3 | 0.00 | 0.00 | 0.00 | 86 | 1017.8 |
| 20260903084322 | 26 | 201 | 3.2 | 8.0 | 0.00 | 0.00 | 0.00 | 86 | 1017.8 |
| 20260903083316 | 26 | 143 | 3.2 | 8.0 | 0.00 | 0.00 | 0.00 | 86 | 1017.8 |
| 20260903082311 | 26 | 104 | 4.8 | 9.7 | 0.00 | 0.00 | 0.00 | 86 | 1017.7 |
| 20260903081311 | 26 | 190 | 3.2 | 8.0 | 0.00 | 0.00 | 0.00 | 86 | 1017.6 |
| 20260903080327 | 26 | 155 | 3.2 | 8.0 | 0.00 | 0.00 | 0.00 | 86 | 1017.6 |
| 20260903075349 | 27 | 220 | 3.2 | 8.0 | 0.00 | 0.00 | 0.00 | 86 | 1017.6 |
| 20260903074322 | 27 | 136 | 3.2 | 8.0 | 0.00 | 0.00 | 0.00 | 86 | 1017.7 |
| 20260903073322 | 27 | 129 | 3.2 | 8.0 | 0.00 | 0.00 | 0.00 | 86 | 1017.6 |
| 20260903072315 | 27 | 146 | 3.2 | 8.0 | 0.00 | 0.00 | 0.00 | 85 | 1017.7 |
| 20260903071334 | 27 | 181 | 3.2 | 4.8 | 0.00 | 0.00 | 0.00 | 85 | 1017.6 |
| 20260903070349 | 27 | 148 | 3.2 | 6.4 | 0.00 | 0.00 | 0.00 | 85 | 1017.6 |
| 20260903065311 | 27 | 178 | 3.2 | 6.4 | 0.00 | 0.00 | 0.00 | 84 | 1017.4 |
| 20260903064323 | 27 | 160 | 1.6 | 4.8 | 0.00 | 0.00 | 0.00 | 84 | 1017.3 |
| 20260903063326 | 27 | 134 | 3.2 | 6.4 | 0.00 | 0.00 | 0.00 | 83 | 1017.3 |
| 20260903062318 | 28 | 173 | 3.2 | 6.4 | 0.00 | 0.00 | 0.00 | 83 | 1017.3 |
| 20260903061311 | 28 | 82 | 3.2 | 8.0 | 0.00 | 0.00 | 0.00 | 83 | 1017.5 |
| 20260903060328 | 28 | 186 | 1.6 | 4.8 | 0.00 | 0.00 | 0.00 | 82 | 1017.6 |
| 20260903055321 | 28 | 130 | 1.6 | 4.8 | 0.00 | 0.00 | 0.00 | 82 | 1017.6 |
| 20260903054320 | 28 | 108 | 3.2 | 4.8 | 0.00 | 0.00 | 0.00 | 81 | 1017.6 |
| 20260903053315 | 28 | 179 | 3.2 | 6.4 | 0.00 | 0.00 | 0.00 | 81 | 1017.7 |
| 20260903052333 | 28 | 72 | 3.2 | 8.0 | 0.00 | 0.00 | 0.00 | 80 | 1017.7 |
| 20260903051326 | 29 | 157 | 3.2 | 11.3 | 0.00 | 0.00 | 0.00 | 80 | 1017.7 |
| 20260903050327 | 29 | 131 | 6.4 | 11.3 | 0.00 | 0.00 | 0.00 | 80 | 1017.7 |
| 20260903045340 | 29 | 145 | 3.2 | 8.0 | 0.00 | 0.00 | 0.00 | 80 | 1017.7 |
| 20260903044317 | 29 | 194 | 3.2 | 8.0 | 0.00 | 0.00 | 0.00 | 80 | 1017.8 |
| 20260903043311 | 29 | 225 | 4.8 | 9.7 | 0.00 | 0.00 | 0.00 | 80 | 1017.7 |
| 20260903042328 | 30 | 150 | 6.4 | 11.3 | 0.00 | 0.00 | 0.00 | 80 | 1017.7 |
| 20260903041321 | 30 | 76 | 3.2 | 6.4 | 0.00 | 0.00 | 0.00 | 80 | 1017.7 |
| 20260903040313 | 30 | 153 | 4.8 | 9.7 | 0.00 | 0.00 | 0.00 | 79 | 1017.7 |
| 20260903035314 | 30 | 136 | 4.8 | 12.9 | 0.00 | 0.00 | 0.00 | 79 | 1017.8 |
| 20260903034313 | 30 | 179 | 6.4 | 11.3 | 0.00 | 0.00 | 0.00 | 79 | 1017.8 |
| 20260903033333 | 30 | 170 | 4.8 | 9.7 | 0.00 | 0.00 | 0.00 | 79 | 1017.8 |
| 20260903032327 | 30 | 149 | 4.8 | 8.0 | 0.00 | 0.00 | 0.00 | 78 | 1017.8 |
| 20260903031331 | 31 | 127 | 4.8 | 8.0 | 0.00 | 0.00 | 0.00 | 78 | 1017.6 |
| 20260903030346 | 31 | 200 | 3.2 | 11.3 | 0.00 | 0.00 | 0.00 | 77 | 1017.5 |
| 20260903025329 | 31 | 159 | 4.8 | 9.7 | 0.00 | 0.00 | 0.00 | 77 | 1017.3 |
| 20260903024325 | 31 | 146 | 4.8 | 9.7 | 0.00 | 0.00 | 0.00 | 77 | 1017.1 |
| 20260903023348 | 31 | 200 | 4.8 | 12.9 | 0.00 | 0.00 | 0.00 | 76 | 1017.2 |
| 20260903022321 | 31 | 140 | 6.4 | 12.9 | 0.00 | 0.00 | 0.00 | 76 | 1017.1 |
| 20260903021344 | 31 | 142 | 8.0 | 14.5 | 0.00 | 0.00 | 0.00 | 75 | 1017.2 |
| 20260903020338 | 31 | 126 | 11.3 | 14.5 | 0.00 | 0.00 | 0.00 | 74 | 1017.6 |
| 20260903015320 | 31 | 142 | 6.4 | 11.3 | 0.00 | 0.00 | 0.00 | 73 | 1018.0 |
| 20260903014314 | 31 | 152 | 4.8 | 6.4 | 0.00 | 0.00 | 0.00 | 72 | 1018.2 |
| 20260903013315 | 31 | 146 | 1.6 | 4.8 | 0.00 | 0.00 | 0.00 | 72 | 1018.3 |
| 20260903012313 | 31 | 281 | 1.6 | 3.2 | 0.00 | 0.00 | 0.00 | 70 | 1018.4 |
| 20260903011337 | 31 | 80 | 1.6 | 3.2 | 0.00 | 0.00 | 0.00 | 70 | 1018.3 |
| 20260903010339 | 32 | 80 | 0.0 | 3.2 | 0.00 | 0.00 | 0.00 | 69 | 1018.1 |